Other Surface Observations
Issued by NWS

Home | Current Version | Previous Version | Text Only | Print | Product List | Glossary On
Versions: 1 2 3 4 5 6 7 8 9 10 11 12 13 14 15 16 17 18 19 20 21 22 23 24 25 26 27 28 29 30 31 32 33 34 35 36 37 38 39 40 41 42 43 44 45 46 47 48 49 50
000
SXUS52 KTAE 262018
OSOTAE
OSOTAE
North Florida/South Alabama/Southwest Georgia Weather Roundup
National Weather Service Tallahassee Florida
400 PM EDT SAT JUL 26 2014

Note: "fair" indicates few or no clouds below 12,000 feet with no
significant weather and/or obstructions to visibility.

!FLZ017-115-028-034-025-262100
...North Florida...

CITY           SKY/WX    TMP DP  RH WIND       PRES   REMARKS
TALLAHASSEE    PTSUNNY   90  75  61 S14       30.03S HX 100
APALACHICOLA   LGT RAIN  85  77  77 W12       30.05F HX  95
PERRY          PTSUNNY   84  73  70 SW12      30.06S HX  91
CROSS CITY       N/A     88  73  61 W10       30.05F HX  95
HOMERVILLE     PTSUNNY   91  77  62 W3        30.02F HX 105
JACKSONVILLE   CLOUDY    86  77  74 SW10      30.03F HX  97
$$

!FLZ112-006-005-002-011-262100
...Florida Panhandle...

CITY           SKY/WX    TMP DP  RH WIND       PRES   REMARKS
MARIANNA       SUNNY     93  73  52 NW8       30.01F HX 102
BONIFAY        FAIR      91  74  57 VRB3      30.02F HX 100
PANAMA CITY NW FAIR      86  76  71 SE6       30.03F HX  96
TYNDALL AFB    CLOUDY    85  79  82 W9        30.05F HX  98
TYND DRONE APT NOT AVBL
DE FUNIAK SPR  FAIR      91  72  52 CALM      30.04F HX  98
EGLIN AFB      PTSUNNY   89  77  69 SW12      30.03F HX 101
DESTIN         SUNNY     89  79  72 SW10G17   30.04F HX 104
HURLBURT       MOSUNNY   87  75  66 SW12      30.03F HX  97
CRESTVIEW      MOSUNNY   93  70  46 S5        30.04F HX  99
PENSACOLA      CLOUDY    86  77  74 S14       30.02F HX  97
$$

!ALZ063-066-262100
...South Alabama...

CITY           SKY/WX    TMP DP  RH WIND       PRES   REMARKS
DOTHAN         MOSUNNY   91  72  53 CALM      30.07F HX  98
OZARK CAIRNS   SUNNY     92  72  52 SW8       30.03F HX  99
FT RUCKER HELI MOSUNNY   93  69  45 VRB3      30.01F HX  98
RUCKER HELI 3  FAIR      92  73  52 VRB7      30.05F HX 100
RUCKER HELI 2  CLOUDY    91  70  49 VRB5      30.02F HX  96
FLORALA APT    SUNNY     92  72  51 S7        30.04F HX  99
ANDALUSIA      PTSUNNY   97  70  41 W6        30.03F HX 103
TROY           MOSUNNY   93  68  43 W8        30.03F HX  97
EUFALA         FAIR      94  70  45 SW5       30.00F HX 100
MOBILE         MOSUNNY   90  76  63 SW6       30.04F HX 101
$$

!GAZ120>161-262100
...Southwest and South Central Georgia...

CITY           SKY/WX    TMP DP  RH WIND       PRES   REMARKS
THOMASVILLE    PTSUNNY   90  75  62 CALM      30.04S HX 100
BAINBRIDGE     SUNNY     95  75  52 NW6       30.02F HX 107
MOODY AFB      MOSUNNY   84  73  70 S12       30.02F HX  91
VALDOSTA       MOSUNNY   94  74  52 VRB3      30.03F HX 104
MOULTRIE       MOSUNNY   90  72  55 CALM      30.04S HX  96
BLAKELY        MOSUNNY   95  72  46 W6        30.02F HX 103
ALBANY         MOSUNNY   94  70  45 W6        30.03S HX 100
TIFTON         FAIR      92  67  43 NW3       30.02F HX  94
FITZGERALD     FAIR      95  67  39 W5        30.03F HX  98
CORDELE        FAIR      93  69  45 W9        30.02F HX  98
AMERICUS       FAIR      90  66  45 W6        30.03F HX  92
$$

!GMZ750-755-770-775-262100
...Coastal and Buoy Obs...

STATION/POSITION TIME  TEMP    WIND        PRES    VSBY  WAVE
                       AIR SEA DIR/SP/G                  HT/PER
                 (UTC) (F)     (DEG/KT/KT) (MB)    (MI)  (FT/S)
KEATON BEACH     2000   85     250/ 11/ 13 1017.9F
CEDAR KEY        2000   87     280/  8/ 12 1018.4F
C TOWER          2000   83     270/ 11/ 12 1018.1F
APALACHICOLA BUO 2000   85 86  290/  8/ 12 1018.5F         2/ 5
PANAMA CITY BUOY 1902   84 85  290/  8/ 10 1018.3F         2/ 4
MOBILE BUOY      1900   84 88  260/  6/  8 1018.8
ORANGE BCH AL BU 2000   83 85  240/ 12/ 14 1017.7F         2/ 4
$$



USA.gov is the U.S. government's official web portal to all federal, state and local government web resources and services.